Wind_Speed
16 15 15 16 17 17 17 18 18 18 18 19 20 20 20 20 20 21 21 21 21 21 22 22 23 23 23 23 23 22 22 23 22 22 22 22 22 23 23 23 24 24 24
15 16 17 17 17 17 18 19 19 20 20 20 20 21 21 21 21 21 22 22 22 22 22 23 23 22 23 22 22 22 22 22 22 22 22 22 22 22 23 23 23 24 24
16 17 17 18 18 19 19 19 20 21 21 21 21 21 21 22 22 22 23 23 23 23 23 23 23 23 22 22 22 22 22 22 21 21 22 22 22 22 23 22 23 24 24
17 17 18 19 20 20 19 20 20 21 21 22 21 22 22 23 23 23 24 24 24 23 23 23 23 22 22 21 21 21 21 21 21 21 21 21 21 22 23 23 23 25 25
19 19 19 20 20 19 19 20 21 22 22 22 22 22 22 23 23 23 23 24 23 22 22 22 22 22 21 22 22 21 21 21 21 21 22 22 22 22 23 23 24 24 25
20 20 19 19 19 20 21 21 21 21 22 22 23 23 23 23 24 24 23 23 23 22 22 23 22 22 22 22 22 21 21 21 22 22 22 23 23 23 24 24 25 24 24
20 20 19 19 20 20 21 21 21 22 22 21 22 22 22 23 23 23 23 23 23 23 23 23 23 23 23 22 22 22 22 22 22 22 22 23 23 23 24 24 24 24 24
20 19 19 20 20 20 21 21 22 22 22 22 21 21 21 22 22 22 22 22 23 22 22 23 23 22 23 23 23 23 23 23 23 23 23 23 23 24 24 24 23 23 24
19 19 19 20 20 20 21 21 21 22 22 22 23 22 21 21 21 21 22 22 22 22 22 22 22 22 23 23 23 24 24 24 24 24 24 24 24 25 25 24 24 24 24
21 21 21 21 21 21 21 21 21 22 21 22 22 21 21 21 21 21 22 22 22 22 22 22 23 23 24 24 24 24 24 24 24 25 25 25 25 25 25 25 25 24 23
21 21 21 21 21 21 21 21 22 22 21 21 21 21 22 22 22 22 22 22 22 23 23 23 23 24 24 24 24 24 24 24 24 24 24 24 24 24 24 25 24 24 23
22 21 21 21 21 22 22 22 21 21 21 21 21 21 21 22 22 22 22 22 22 22 22 23 23 23 23 23 23 23 23 24 23 23 24 24 24 24 24 23 23 23 23
21 21 22 21 22 23 23 22 22 22 22 21 21 21 22 22 23 22 22 22 23 23 23 22 23 22 23 23 23 23 23 23 23 24 24 24 24 23 23 22 22 22 23
21 21 22 22 22 22 23 23 23 22 21 22 22 22 22 22 21 21 22 22 23 23 23 22 22 22 22 22 22 23 23 24 24 23 23 23 23 23 22 22 22 22 22
21 21 22 22 22 22 23 23 23 22 23 23 23 22 22 21 21 20 21 22 22 21 22 21 21 20 20 21 21 22 22 23 22 22 22 22 22 21 21 22 22 22 22
22 22 22 22 22 22 22 22 22 23 23 23 22 22 22 21 21 20 20 21 21 21 21 21 20 19 19 19 19 19 20 20 20 20 20 20 20 21 21 21 22 21 21
22 22 22 22 22 22 21 21 22 22 22 22 21 20 20 20 20 19 19 20 20 20 19 19 19 18 18 18 18 18 18 18 19 19 19 19 20 20 19 20 20 20 20
22 21 21 21 21 20 20 20 20 20 21 20 20 19 19 19 19 19 18 18 18 18 17 17 17 17 17 17 17 17 17 18 18 18 18 18 18 18 18 18 18 18 19
21 21 21 21 21 20 20 19 19 19 19 19 18 18 18 18 17 17 16 16 16 16 16 16 16 16 16 16 16 16 16 16 16 16 17 16 16 16 17 17 17 18 18
21 21 21 21 20 20 19 19 18 19 19 18 18 18 18 17 16 15 15 15 15 15 16 16 16 16 16 16 16 15 15 15 15 15 15 15 16 16 16 17 17 18 18
21 21 21 21 20 20 20 20 19 19 18 17 17 17 17 16 15 15 15 15 16 16 16 16 16 16 15 15 15 14 14 13 14 14 14 15 15 16 16 17 17 17 17
21 21 21 21 21 20 20 19 18 17 17 17 17 16 16 15 15 14 14 14 14 15 14 14 14 14 14 13 13 13 13 13 13 14 14 14 14 15 15 16 17 17 16
21 20 20 20 20 19 19 18 17 16 16 16 16 16 15 15 15 15 14 13 14 14 14 13 13 13 13 12 13 13 13 13 13 14 14 14 15 15 15 16 16 16 16
20 19 19 18 18 18 17 16 16 16 16 16 16 16 16 16 16 15 15 15 15 14 14 14 13 13 13 13 13 13 13 14 14 14 14 14 15 15 16 17 16 16 16
19 19 18 17 17 17 17 16 16 16 16 16 16 16 16 16 16 15 15 15 15 15 15 15 15 15 15 15 15 14 14 14 14 15 15 16 16 16 16 16 15 15 15
18 18 18 17 17 17 17 17 17 16 16 16 16 15 15 16 15 14 13 13 13 13 14 15 15 15 15 15 15 15 15 15 15 16 16 16 16 16 16 15 15 15 15
Wind_Direction
270 268 267 266 269 270 270 269 270 272 271 270 270 269 269 269 269 270 272 273 275 277 280 280 279 280 278 279 279 281 281 282 281 279 279 279 279 279 280 279 280 280 281
270 269 268 268 269 270 271 270 272 274 274 272 271 270 269 269 269 270 272 274 275 277 279 281 280 281 281 281 280 281 282 281 279 278 278 280 280 280 280 281 282 282 281
275 274 272 271 271 273 272 273 274 276 276 275 273 270 268 268 269 271 273 275 277 278 278 278 279 280 281 281 281 281 281 281 279 279 279 280 282 282 282 282 282 282 282
275 275 274 272 272 273 273 273 275 276 276 275 273 271 269 269 270 273 274 275 278 278 277 276 277 278 278 279 281 282 281 281 281 281 280 281 283 283 283 282 282 283 283
274 274 275 274 274 273 275 275 275 277 277 275 273 272 271 271 271 273 274 276 277 277 275 275 277 277 277 278 280 283 283 283 282 282 282 282 283 284 284 283 282 284 283
272 273 274 274 274 276 278 278 277 277 278 277 274 272 270 270 271 273 274 275 275 275 274 274 275 277 277 280 280 281 282 282 281 281 281 282 284 285 286 285 283 284 284
274 274 273 274 276 277 277 278 279 280 282 278 276 274 271 270 272 274 275 275 275 274 273 273 275 277 277 279 280 280 280 281 281 282 282 283 283 284 286 286 286 286 285
273 273 275 274 276 277 277 279 280 280 281 279 276 276 275 275 275 275 275 277 276 273 272 273 274 275 276 277 277 278 280 280 281 281 282 284 284 284 286 287 286 287 288
274 275 275 275 275 275 277 279 280 281 281 280 278 276 276 276 275 274 275 277 276 276 275 275 275 275 278 277 277 277 279 280 280 280 281 283 284 285 286 286 286 287 289
275 276 276 275 275 275 278 280 281 281 282 281 279 277 276 275 275 274 275 274 274 274 275 276 277 278 279 279 278 277 279 279 280 281 283 283 284 284 285 286 286 286 287
275 275 275 276 277 278 280 281 282 282 282 282 280 279 277 276 275 274 275 273 274 274 274 276 278 280 280 278 277 278 278 278 279 280 283 284 286 286 285 285 285 286 287
272 274 275 277 277 279 280 281 282 282 282 282 281 280 278 276 276 275 274 273 275 275 275 276 278 280 279 277 277 277 278 278 279 280 282 284 285 287 287 286 284 285 287
270 272 274 276 277 278 280 280 280 281 281 279 279 280 279 275 274 273 272 273 274 275 277 277 278 279 279 277 276 277 278 279 280 281 283 284 285 285 287 288 287 286 288
272 274 275 275 276 276 277 279 280 279 279 279 279 280 281 278 275 274 274 275 275 276 277 278 278 278 279 278 278 278 278 280 281 281 282 283 284 286 286 288 288 288 289
274 275 276 276 276 276 277 278 279 279 279 279 280 280 279 278 276 275 276 276 276 276 277 278 279 279 279 281 281 281 280 280 281 281 282 284 286 287 288 290 290 290 290
279 279 279 279 279 279 279 278 278 279 280 279 279 280 279 279 276 276 276 275 275 276 277 278 279 279 281 281 283 284 282 282 282 281 283 284 286 288 291 291 291 291 292
279 280 279 279 280 279 279 279 278 277 279 280 280 279 280 281 278 276 275 273 272 274 275 277 278 280 281 281 282 284 285 285 284 284 286 286 288 288 290 290 291 293 294
279 280 279 278 279 279 279 279 278 276 276 278 278 277 280 281 278 275 273 271 270 272 274 275 277 280 282 283 283 284 287 287 286 287 287 287 288 288 290 292 294 297 297
276 276 277 277 278 277 277 277 277 276 276 276 276 276 278 279 277 271 270 269 270 271 272 276 279 281 282 284 285 285 286 288 289 289 289 289 288 288 291 294 297 300 301
273 275 277 277 276 275 275 276 277 277 275 275 274 273 274 276 275 270 271 271 272 273 273 277 280 281 281 283 286 287 287 289 291 292 292 293 291 293 294 296 298 301 303
271 272 274 276 275 274 274 275 276 277 275 274 273 274 274 276 275 270 270 269 270 273 275 275 276 278 281 285 287 287 289 292 296 296 296 297 295 294 298 299 299 301 303
270 270 272 274 274 272 272 273 274 274 273 271 271 273 272 273 271 269 270 270 270 272 273 274 276 280 281 282 286 288 290 293 297 298 298 299 300 300 300 302 303 303 304
270 271 272 273 272 269 268 269 270 272 271 272 270 269 271 271 267 266 268 267 268 269 270 271 274 277 277 277 283 287 291 296 298 299 299 300 301 302 304 305 305 303 302
266 269 273 272 268 265 266 267 269 271 270 269 270 271 271 270 266 265 266 264 264 266 267 268 268 270 273 274 279 283 288 295 300 300 300 301 303 305 305 306 305 302 300
266 268 271 269 265 263 264 265 267 270 271 271 271 272 271 269 267 265 265 265 265 264 265 266 267 270 271 273 276 279 284 290 294 296 298 300 302 305 307 306 306 305 302
269 269 270 267 264 263 265 266 265 267 270 270 270 272 274 270 268 267 267 266 266 265 266 267 267 270 273 274 272 276 281 286 290 292 295 298 300 303 305 305 304 304 305
Height
5787 5787 5787 5788 5788 5789 5789 5789 5789 5789 5789 5789 5789 5788 5788 5788 5788 5788 5788 5788 5787 5787 5786 5785 5785 5784 5783 5782 5781 5780 5779 5778 5777 5777 5775 5774 5774 5773 5772 5771 5771 5770 5769
5783 5783 5783 5783 5784 5784 5784 5784 5784 5784 5783 5783 5783 5783 5782 5782 5782 5782 5782 5782 5782 5781 5780 5779 5778 5778 5777 5776 5775 5774 5773 5772 5771 5770 5770 5768 5767 5767 5766 5765 5764 5763 5763
5778 5778 5778 5778 5778 5778 5778 5778 5778 5778 5777 5777 5776 5776 5776 5776 5776 5776 5776 5776 5775 5775 5774 5773 5772 5772 5771 5770 5769 5768 5767 5766 5765 5764 5763 5762 5761 5761 5760 5759 5758 5757 5756
5773 5773 5773 5773 5773 5773 5773 5772 5772 5772 5771 5771 5770 5769 5769 5769 5769 5769 5769 5769 5768 5768 5767 5767 5766 5765 5765 5764 5763 5762 5761 5760 5759 5758 5757 5756 5755 5754 5753 5752 5752 5750 5749
5768 5768 5767 5767 5767 5767 5767 5766 5766 5765 5765 5764 5763 5762 5762 5763 5763 5762 5762 5762 5761 5761 5761 5760 5760 5759 5759 5758 5757 5756 5755 5754 5753 5752 5751 5750 5749 5748 5747 5746 5745 5743 5742
5762 5762 5762 5762 5761 5761 5761 5760 5760 5759 5758 5757 5756 5755 5755 5755 5755 5755 5755 5755 5754 5754 5754 5754 5753 5753 5752 5752 5751 5750 5749 5748 5748 5747 5745 5744 5743 5741 5740 5739 5738 5737 5735
5756 5756 5756 5756 5755 5755 5754 5754 5753 5752 5751 5750 5749 5748 5748 5748 5748 5747 5747 5747 5747 5747 5747 5747 5747 5746 5746 5745 5744 5744 5743 5742 5742 5741 5739 5738 5737 5735 5734 5733 5731 5729 5728
5750 5750 5750 5749 5749 5748 5748 5747 5746 5745 5744 5743 5742 5742 5741 5740 5740 5740 5740 5740 5740 5740 5740 5740 5740 5739 5739 5739 5738 5737 5736 5735 5735 5734 5733 5731 5730 5729 5727 5726 5724 5722 5721
5745 5744 5744 5743 5743 5742 5741 5741 5739 5738 5737 5736 5735 5734 5734 5733 5733 5733 5733 5733 5733 5733 5733 5733 5732 5732 5732 5732 5731 5730 5729 5728 5728 5727 5726 5724 5723 5722 5720 5719 5717 5716 5714
5739 5739 5738 5737 5737 5736 5735 5734 5733 5732 5731 5729 5728 5727 5727 5727 5727 5726 5726 5726 5726 5726 5726 5726 5725 5725 5725 5724 5724 5723 5722 5721 5721 5719 5718 5717 5715 5714 5713 5712 5710 5709 5707
5733 5732 5732 5731 5730 5730 5729 5728 5727 5725 5724 5723 5722 5721 5720 5720 5720 5719 5719 5719 5719 5719 5719 5719 5718 5718 5717 5717 5716 5716 5715 5714 5713 5712 5711 5710 5708 5707 5706 5704 5703 5702 5700
5727 5726 5725 5725 5724 5723 5722 5721 5720 5719 5718 5717 5716 5714 5713 5713 5712 5711 5711 5711 5711 5712 5712 5712 5711 5711 5710 5709 5708 5708 5707 5706 5706 5705 5704 5703 5701 5700 5698 5697 5696 5694 5693
5720 5719 5719 5718 5718 5717 5716 5715 5714 5713 5712 5711 5709 5708 5707 5706 5705 5704 5704 5704 5704 5704 5704 5704 5704 5703 5702 5702 5701 5700 5700 5699 5698 5698 5697 5696 5694 5693 5691 5690 5689 5687 5686
5713 5713 5712 5711 5711 5710 5709 5708 5707 5706 5705 5704 5703 5702 5700 5699 5698 5698 5697 5697 5697 5697 5697 5697 5696 5695 5695 5694 5694 5693 5692 5692 5691 5690 5689 5688 5687 5686 5685 5683 5682 5681 5679
5706 5705 5705 5704 5703 5703 5702 5701 5700 5699 5698 5697 5696 5695 5694 5693 5692 5691 5691 5691 5691 5691 5690 5690 5689 5689 5688 5688 5687 5686 5685 5685 5684 5683 5683 5682 5681 5679 5678 5677 5675 5674 5672
5698 5698 5698 5697 5697 5696 5695 5694 5693 5692 5691 5690 5689 5688 5687 5686 5685 5685 5684 5684 5684 5683 5683 5683 5683 5682 5682 5681 5681 5680 5679 5679 5678 5677 5676 5675 5674 5673 5672 5670 5669 5667 5665
5691 5691 5691 5690 5689 5689 5688 5687 5686 5685 5684 5683 5682 5681 5681 5680 5679 5678 5677 5677 5677 5676 5677 5677 5677 5677 5676 5676 5675 5675 5674 5673 5672 5671 5670 5669 5668 5667 5665 5664 5662 5661 5659
5684 5684 5684 5683 5682 5681 5681 5680 5679 5678 5678 5677 5676 5675 5674 5673 5672 5671 5671 5670 5670 5670 5671 5671 5671 5671 5671 5670 5670 5669 5668 5667 5666 5666 5664 5663 5662 5661 5660 5658 5657 5655 5654
5677 5677 5676 5676 5675 5675 5674 5673 5672 5672 5671 5671 5670 5669 5668 5667 5666 5665 5665 5665 5665 5666 5666 5667 5667 5666 5666 5665 5665 5664 5663 5662 5661 5660 5659 5658 5657 5656 5655 5653 5652 5650 5648
5670 5669 5669 5668 5668 5668 5667 5667 5666 5665 5665 5664 5664 5663 5662 5661 5661 5660 5660 5660 5661 5661 5662 5662 5662 5662 5661 5661 5660 5659 5658 5657 5656 5655 5654 5653 5652 5651 5650 5648 5647 5645 5643
5662 5662 5662 5661 5661 5661 5661 5660 5659 5659 5658 5658 5658 5657 5656 5656 5656 5655 5655 5656 5656 5657 5657 5657 5657 5657 5656 5656 5656 5655 5654 5653 5652 5651 5649 5648 5647 5646 5645 5643 5642 5640 5638
5655 5655 5654 5654 5654 5654 5654 5653 5653 5653 5652 5652 5652 5651 5651 5651 5651 5651 5651 5651 5652 5652 5652 5652 5653 5653 5652 5652 5651 5651 5650 5649 5648 5646 5645 5644 5643 5641 5640 5638 5637 5635 5634
5648 5648 5647 5647 5647 5647 5647 5647 5647 5647 5647 5647 5646 5646 5646 5646 5646 5646 5647 5647 5647 5647 5648 5648 5648 5648 5648 5648 5648 5647 5646 5645 5644 5642 5641 5640 5639 5637 5636 5634 5632 5631 5629
5641 5641 5641 5640 5640 5640 5641 5641 5641 5641 5641 5641 5641 5640 5640 5640 5641 5641 5642 5642 5643 5643 5643 5644 5644 5644 5644 5644 5644 5643 5642 5641 5640 5638 5637 5636 5635 5633 5632 5630 5628 5627 5625
5634 5634 5635 5634 5634 5635 5635 5635 5635 5635 5635 5635 5635 5635 5635 5635 5635 5636 5636 5637 5637 5638 5639 5639 5639 5640 5640 5640 5639 5639 5638 5637 5636 5635 5633 5632 5631 5629 5627 5625 5624 5622 5621
5628 5628 5628 5628 5629 5629 5629 5629 5629 5629 5630 5630 5630 5630 5629 5630 5630 5630 5631 5632 5632 5633 5633 5634 5634 5634 5634 5634 5634 5634 5633 5632 5631 5630 5629 5627 5626 5624 5623 5621 5619 5618 5616